www.pogodaiklimat.ru

Погода и климат >> Архив погоды >> Россия >> Якутия >> Тонгулах


ПОГОДА в Тонгулахе

  • Прогноз погоды в Тонгулахе
  • Монитор погоды в Тонгулахе

АРХИВ ПОГОДЫ в Тонгулахе

Время (UTC), дата Ветер
(напр.,м/с)
 
Видим.   Явления Облачность Т
(С)
Тd
(С)
f
(%)
Тe
(С)
Тes
(С)
Комфортность P
(гПа)
Po
(гПа)
Тmin
(С)
Tmax
(С)
R
(мм)
R24
(мм)
S
(см)
18 11.07 штиль 0 50 км 6/0
[Ci fib]
+15.7 +14.1 90 +15 +15 1011.2 987.7
21 11.07 штиль 0 50 км 8/0
[Ci fib]
+11.3 +10.5 95 +11 +12 1011.7 987.9
00 12.07 штиль 0 50 км 6/0
[Ci fib]
+22.5 +15.9 66 +27 +35 душно 1010.5 987.7 +11.0
03 12.07 штиль 0 50 км 4/0
[Ci fib]
+29.3 +10.8 32 +30 +45 жарко 1008.7 986.4
06 12.07 штиль 0 50 км 6/3 1000 м
[Cu med, cong Ci fib]
+31.7 +13.0 32 +33 +42 жарко 1006.8 984.7
12 12.07 штиль 0 50 км 6/0
[Ci fib]
+25.5 +18.6 66 +30 +31 душно 1006.0 983.5 +31.9
15 12.07 штиль 0 20 км 8/0
[Ci fib]
+17.5 +15.5 88 +17 +17 1007.3 984.1
18 12.07 штиль 0 50 км 3/0
[Ci fib]
+15.7 +14.1 90 +15 +15 1007.8 984.5
21 12.07 штиль 0 50 км ясно +13.8 +12.3 91 +13 +15 1007.7 984.2
00 13.07 штиль 0 50 км ясно +24.4 +17.0 63 +28 +38 душно 1005.9 984.3 +15.3
03 13.07 штиль 0 50 км 6/4
[Cu med, cong Ci fib]
+29.8 +17.2 47 +34 +43 очень
душно
1005.4 983.2
06 13.07 штиль 0 50 км 6/4 200 м
[Cu med, cong Ci fib]
+29.4 +17.8 50 +34 +42 очень
душно
1003.5 981.4
09 13.07 штиль 0 50 км 8/8 1000 м
[Sc]
+28.8 +20.0 59 +35 +36 очень
душно
1003.0 980.8
12 13.07 штиль 0 50 км {дождь} 8/0
[As trans]
+19.2 +17.6 90 +21 +21 комфорт 1005.1 982.2 +30.2 4
15 13.07 штиль 0 50 км 10/0
[As op]
+15.8 +15.8 100 +16 +16 1005.5 982.4
18 13.07 штиль 0 50 км 10/0
[As op]
+15.2 +14.5 96 +15 +15 1005.9 982.7
21 13.07 штиль 0 50 км 10/0
[Ci fib]
+13.6 +13.4 99 +13 +14 1006.4 982.9
00 14.07 штиль 0 50 км 10/3 600 м
[Cu med, cong Ci fib]
+21.3 +18.9 86 +26 +31 душно 1005.5 982.7 +13.6
03 14.07 штиль 0 50 км 10/3 600 м
[Cu med, cong Ci sp]
+27.1 +20.3 66 +33 +43 очень
душно
1004.6 982.4
06 14.07 СЗ 1 50 км гроза без осадков 10/6 600 м
[Cb calv Ci sp]
+27.6 +19.1 60 +33 +37 очень
душно
1003.7 881.5
09 14.07 С 1 50 км {гроза} 10/8 600 м
[Cb cap Ci sp]
+27.7 +18.0 56 +32 +33 очень
душно
1004.6 982.4
12 14.07 З 1 50 км 10/10 600 м
[Cb cap]
+23.5 +18.1 72 +28 +28 душно 1006.8 984.2 +29.5
15 14.07 штиль 0 20 км {гроза} 10/6 600 м
[Sc diur, vesp Cs]
+20.5 +17.6 83 +24 +24 комфорт 1007.5 984.6
18 14.07 штиль 0 50 км {гроза} 10/0
[Ac As]
+19.9 +17.5 86 +22 +22 комфорт 1007.8 984.9
21 14.07 штиль 0 50 км 8/3 1000 м
[Cu hum Ac trans]
+15.6 +15.1 97 +15 +16 1009.9 985.6
00 15.07 С 2 50 км 8/0
[Ac trans]
+21.3 +11.5 54 +23 +27 комфорт 1010.1 987.2 +15.3
03 15.07 С 2 50 км 10/0
[Ci fib]
+25.3 +10.2 39 +26 +36 жарко 1009.9 987.3
06 15.07 С 2 50 км 8/0
[Ci fib]
+25.5 +11.9 43 +27 +36 жарко 1009.6 987.1
09 15.07 СЗ 2 50 км 3/0
[Ci fib]
+26.1 +9.9 36 +27 +30 жарко 1009.1 986.5
12 15.07 штиль 0 50 км 9/0
[Ci fib]
+21.9 +12.0 53 +24 +24 комфорт 1010.7 987.7 +25.7
15 15.07 штиль 0 20 км 4/0
[Ci fib]
+11.5 +10.7 95 +11 +11 1012.5 988.7
18 15.07 штиль 0 50 км ясно +10.5 +9.9 96 +10 +10 1013.3 989.4
21 15.07 штиль 0 50 км ясно +6.4 +4.0 85 +5 +7 1014.0 989.6
00 16.07 штиль 0 50 км 6/0
[Ci fib]
+17.2 +5.7 47 +17 +26 1013.5 990.1 +5.2
03 16.07 СЗ 2 50 км 6/0
[Ci fib]
+22.0 +5.1 33 +22 +33 комфорт 1012.2 989.2
06 16.07 СЗ 2 50 км 3/0
[Ci fib]
+24.8 +5.7 29 +24 +34 комфорт 1010.9 988.2
09 16.07 штиль 0 50 км ясно +24.4 +6.8 32 +24 +29 комфорт 1010.4 987.6
12 16.07 штиль 0 50 км 3/0
[Ci fib]
+24.4 +4.4 27 +24 +24 комфорт 1010.8 988.0 +25.2
15 16.07 штиль 0 20 км 3/0
[Ci fib]
+9.8 +6.8 82 +9 +9 1012.1 988.1
18 16.07 штиль 0 50 км 3/0
[Ci fib]
+7.4 +5.8 90 +6 +6 1012.5 988.3
21 16.07 штиль 0 50 км 4/0
[Ci fib]
+15.8 +3.9 45 +16 +17 1011.5 987.5
00 17.07 штиль 0 50 км 10/0
[Ci fib]
+20.4 +9.3 49 +22 +29 комфорт 1009.2 986.3 +5.8
03 17.07 З 1 50 км 10/0
[Ci fib]
+26.3 +9.2 34 +27 +38 жарко 1006.7 984.2
06 17.07 З 1 50 км 10/0
[Ci fib]
+27.0 +9.3 33 +27 +37 жарко 1005.3 982.8
09 17.07 З 1 50 км 10/8 600 м
[Sc Ci fib]
+24.1 +14.1 54 +27 +27 жарко 1002.4 979.9
12 17.07 СЗ 1 50 км 10/0
[Ac As]
+20.8 +15.6 72 +25 +25 комфорт 1002.8 980.1 +28.2
15 17.07 штиль 0 20 км 6/0
[Ac trans]
+17.9 +15.3 85 +18 +18 1002.2 979.2
18 17.07 штиль 0 50 км 6/0
[Ac trans]
+15.6 +13.8 89 +15 +15 1002.0 978.8
21 17.07 СЗ 2 50 км 3/0
[Ac trans]
+12.3 +10.4 88 +11 +12 1004.2 980.7
00 18.07 СЗ 3 50 км 6/6 1000 м
[Sc]
+14.7 +8.8 68 +14 +16 1004.3 981.0 +12.0
03 18.07 СЗ 3 50 км 6/6 1000 м
[Sc]
+17.9 +7.7 51 +18 +22 1004.5 981.4
06 18.07 СЗ 3 50 км 9/9 1000 м
[Sc]
+17.7 +7.2 50 +18 +19 1005.9 982.7
09 18.07 50 км н/о +15.1 +7.0 58 +15 +16 1007.7 984.3
12 18.07 СЗ 2 50 км 8/0
[Ac trans]
+13.5 +9.6 77 +13 +13 1009.0 985.5 +18.2

 

Местоположение метеостанции Тонгулах (Якутия, Россия): широта 61.92 долгота 124.50 высота над уровнем моря 199 м.

В архиве по умолчанию представлена погода в Тонгулахе за последнюю неделю. Архивные данные за месяц целиком и за предыдущие месяцы, начиная с января 2011 года, Вы можете получить, выбрав интересующий диапазон дат из раскрывающегося списка и нажав кнопку "Ввод!".


*Определитесь, кто Вы:
робот инопланетянин человек

Внимание! Время в таблицах - всемирное. Для получения местного времени необходимо прибавить поправку, которая равна 9 ч.

Смотрите также архив погоды в соседних городах и на ближайших метеорологических станциях:

Погода в Исити (Якутия, Россия) (130 км)
Погода в Бердигестяхе (Якутия, Россия) (136 км)
Погода в Хатырык-Хомо (Якутия, Россия) (226 км)
Погода в Покровске (Якутия, Россия) (247 км)
Погода в Вилюйске (Якутия, Россия) (253 км)
Погода в Якутске (Якутия, Россия) (267 км)
Погода в Сангаре (Якутия, Россия) (269 км)
Погода в Олекминске (Якутия, Россия) (277 км)
Погода в Верхневилюйске (Якутия, Россия) (278 км)
Погода в Намцах (Якутия, Россия) (278 км)

Пояснения к столбцам:

Ветер - указаны скорость ветра в м/с - средняя за 10 мин, порывы в срок и между сроками (в фигурных скобках) и направление, откуда дует ветер: С - северный, СВ - северо-восточный, В - восточный, ЮВ - юго-восточный, Ю - южный, ЮЗ - юго-западный, З - западный, СЗ - северо-западный.
Видимость - горизонтальная дальность видимости в метрах или километрах. При видимости от 1 до 10 км при отсутствии осадков обычно наблюдается дымка, при ухудшении видимости до 1 км и менее - туман. В сухую погоду видимость может ухудшаться дымом, пылью или мглою.
Явления - указаны атмосферные явления, наблюдавшиеся в срок или в последний час перед сроком; фигурными скобками обозначены явления, наблюдавшиеся между сроками (за 1-3 часа до срока); квадратными скобками обозначены град или гололедные отложения с указанием их диаметра в мм.
Облачность - указаны через наклонную черту общая и нижняя облачность в баллах и высота нижней границы облаков в метрах; квадратными скобками обозначены формы облаков: Ci - перистые, Cs - перисто-слоистые, Cc - перисто-кучевые, Ac - высококучевые, As - высокослоистые, Sc - слоисто-кучевые, Ns - слоисто-дождевые, Cu - кучевые, Cb - кучево-дождевые. Подробнее классификацию облаков см. в Атласе облаков (PDF).
T - Температура воздуха - температура, измеренная на высоте 2 м над землей.
Td - Температура точки росы - температура, при понижении до которой содержащийся в воздухе водяной пар достигнет насыщения.
f - Относительная влажность воздуха - влажноcть воздуха, измеренная на высоте 2 м над землей.
Te - Эффективная температура - температура, которую ощущает одетый по сезону человек в тени. Характеристика душности погоды. При расчете учитывается влияние влажности воздуха и скорости ветра на теплоощущения человека.
Tes - Эффективная температура на солнце - температура, которую ощущает человек, с поправкой на солнечный нагрев. Характеристика знойности погоды. Зависит от высоты солнца над горизонтом, облачности и скорости ветра. Ночью, в пасмурную погоду, а также при ветре 12 м/с и более поправка равна нулю.
P - Атмосферное давление - приведенное к уровню моря атмосферное давление.
Po - Атмосферное давление - измеренное на уровне метеостанции атмосферное давление.
Tmin - Минимальная температура - минимум температуры воздуха на высоте 2 м над землей.
Tmax - Максимальная температура - максимум температуры воздуха на высоте 2 м над землей.
R - Количество осадков - Количество выпавших осадков за период времени, мм. При наведении курсора мыши на число - период времени, за который выпало указанное количество осадков.
R24 - Количество осадков - Количество выпавших осадков за 24 часа, мм.
S - Снежный покров - Высота снежного покрова, см. При наведении курсора мыши на число - состояние снежного покрова и степень покрытия местности в баллах.